When you browse on this site, cookies collect data to enhance your experience and personalize the content and advertising you see.
Visit our Privacy Policy to learn more. By continuing to use the site, you agree to this use of cookies and data.
  • In United Kingdom
  • List of Countries
  • For 7 days
  • Water Temperature
  • Satellite Maps
  • Weather Map
  • Weather Widgets
  • user-avatar
    Login

    Hourly Weather London

    Today, 18 June, Tuesday

    Time Temperature Precipitation Wind Pressure Humidity
    00:00 +14°C° 0 mm 2 mps 761 mmHg 82%
    01:00 +13°C° 0 mm 1 mps 761 mmHg 82%
    02:00 +13°C° 0 mm 1 mps 760 mmHg 82%
    03:00 +13°C° 0 mm 1 mps 760 mmHg 82%
    04:00 +13°C° 0 mm 1 mps 760 mmHg 80%
    05:00 +13°C° 0 mm 0 mps 760 mmHg 77%
    06:00 +13°C° 0 mm 0 mps 760 mmHg 75%
    07:00 +15°C° 0.1 mm 0 mps 760 mmHg 70%
    08:00 +18°C° 0.1 mm 1 mps 760 mmHg 66%
    09:00 +19°C° 0.1 mm 1 mps 760 mmHg 61%
    10:00 +20°C° 0.2 mm 1 mps 759 mmHg 63%
    11:00 +20°C° 0.2 mm 1 mps 759 mmHg 65%
    12:00 +23°C° 0 mm 1 mps 759 mmHg 58%
    13:00 +22°C° 0.2 mm 1 mps 758 mmHg 63%
    14:00 +21°C° 0.2 mm 1 mps 758 mmHg 67%
    15:00 +21°C° 0.2 mm 1 mps 757 mmHg 72%
    16:00 +19°C° 0.9 mm 2 mps 757 mmHg 76%
    17:00 +19°C° 0.9 mm 2 mps 757 mmHg 80%
    18:00 +18°C° 0.9 mm 3 mps 757 mmHg 83%
    19:00 +17°C° 0 mm 2 mps 757 mmHg 84%
    20:00 +17°C° 0 mm 2 mps 756 mmHg 84%
    21:00 +17°C° 0 mm 2 mps 756 mmHg 84%
    22:00 +16°C° 0.3 mm 1 mps 756 mmHg 86%
    23:00 +16°C° 0.3 mm 1 mps 755 mmHg 88%

    Tomorrow, 19 June, Wednesday

    Time Temperature Precipitation Wind Pressure Humidity
    00:00 +15°C° 0.3 mm 1 mps 755 mmHg 90%
    01:00 +15°C° 0.2 mm 1 mps 754 mmHg 91%
    02:00 +15°C° 0.2 mm 2 mps 754 mmHg 92%
    03:00 +15°C° 0.2 mm 2 mps 753 mmHg 93%
    04:00 +15°C° 0.6 mm 2 mps 753 mmHg 92%
    05:00 +16°C° 0.6 mm 2 mps 753 mmHg 91%
    06:00 +16°C° 0.6 mm 3 mps 753 mmHg 91%
    07:00 +16°C° 0.1 mm 3 mps 753 mmHg 89%
    08:00 +17°C° 0.1 mm 3 mps 753 mmHg 87%
    09:00 +18°C° 0.1 mm 3 mps 753 mmHg 85%
    10:00 +18°C° 0 mm 3 mps 753 mmHg 84%
    11:00 +18°C° 0 mm 3 mps 754 mmHg 83%
    12:00 +18°C° 0 mm 3 mps 754 mmHg 82%
    13:00 +19°C° 0.2 mm 3 mps 754 mmHg 77%
    14:00 +20°C° 0.2 mm 3 mps 754 mmHg 71%
    15:00 +21°C° 0.2 mm 3 mps 754 mmHg 66%
    16:00 +21°C° 0.2 mm 3 mps 754 mmHg 69%
    17:00 +20°C° 0.2 mm 3 mps 754 mmHg 71%
    18:00 +19°C° 0.2 mm 3 mps 754 mmHg 74%
    19:00 +19°C° 0.1 mm 3 mps 755 mmHg 76%
    20:00 +18°C° 0.1 mm 3 mps 755 mmHg 78%
    21:00 +17°C° 0.1 mm 3 mps 755 mmHg 80%
    22:00 +16°C° 0 mm 3 mps 756 mmHg 81%
    23:00 +14°C° 0 mm 3 mps 756 mmHg 82%

    Day after tomorrow, 20 June, Thursday

    Time Temperature Precipitation Wind Pressure Humidity
    00:00 +13°C° 0 mm 3 mps 756 mmHg 83%
    01:00 +13°C° 0 mm 3 mps 756 mmHg 81%
    02:00 +12°C° 0 mm 3 mps 756 mmHg 78%
    03:00 +11°C° 0 mm 3 mps 756 mmHg 76%
    04:00 +12°C° 0 mm 3 mps 756 mmHg 77%
    05:00 +12°C° 0 mm 3 mps 756 mmHg 78%
    06:00 +12°C° 0 mm 3 mps 757 mmHg 80%
    07:00 +14°C° 0 mm 3 mps 757 mmHg 74%
    08:00 +15°C° 0 mm 4 mps 757 mmHg 69%
    09:00 +18°C° 0 mm 4 mps 758 mmHg 64%
    10:00 +18°C° 0.1 mm 4 mps 758 mmHg 62%
    11:00 +19°C° 0.1 mm 4 mps 758 mmHg 60%
    12:00 +19°C° 0.1 mm 4 mps 758 mmHg 57%
    13:00 +19°C° 0.3 mm 4 mps 758 mmHg 59%
    14:00 +19°C° 0.3 mm 5 mps 758 mmHg 60%
    15:00 +19°C° 0.3 mm 5 mps 758 mmHg 62%
    16:00 +19°C° 0.1 mm 5 mps 758 mmHg 63%
    17:00 +18°C° 0.1 mm 4 mps 759 mmHg 65%
    18:00 +17°C° 0.1 mm 4 mps 759 mmHg 66%
    19:00 +15°C° 0 mm 4 mps 759 mmHg 70%
    20:00 +14°C° 0 mm 3 mps 759 mmHg 73%
    21:00 +13°C° 0 mm 3 mps 760 mmHg 76%
    22:00 +13°C° 0 mm 3 mps 760 mmHg 77%
    23:00 +12°C° 0 mm 3 mps 760 mmHg 77%

    21 June, Friday

    Time Temperature Precipitation Wind Pressure Humidity
    00:00 +12°C° 0 mm 3 mps 760 mmHg 78%
    01:00 +11°C° 0 mm 3 mps 760 mmHg 79%
    02:00 +10°C° 0 mm 3 mps 761 mmHg 80%
    03:00 +10°C° 0 mm 3 mps 761 mmHg 81%
    04:00 +10°C° 0 mm 3 mps 761 mmHg 80%
    05:00 +11°C° 0 mm 3 mps 761 mmHg 78%
    06:00 +11°C° 0 mm 3 mps 761 mmHg 77%
    07:00 +13°C° 0 mm 3 mps 762 mmHg 71%
    08:00 +14°C° 0 mm 3 mps 762 mmHg 66%
    09:00 +17°C° 0 mm 3 mps 762 mmHg 60%
    10:00 +17°C° 0 mm 3 mps 762 mmHg 58%
    11:00 +18°C° 0 mm 4 mps 762 mmHg 55%
    12:00 +19°C° 0 mm 4 mps 763 mmHg 53%
    13:00 +19°C° 0 mm 3 mps 763 mmHg 53%
    14:00 +19°C° 0 mm 3 mps 763 mmHg 53%
    15:00 +19°C° 0 mm 3 mps 763 mmHg 52%
    16:00 +19°C° 0 mm 3 mps 763 mmHg 54%
    17:00 +18°C° 0 mm 3 mps 763 mmHg 56%
    18:00 +18°C° 0 mm 2 mps 763 mmHg 58%
    19:00 +17°C° 0 mm 2 mps 763 mmHg 61%
    20:00 +16°C° 0 mm 2 mps 764 mmHg 65%
    21:00 +15°C° 0 mm 1 mps 764 mmHg 69%
    22:00 +14°C° 0 mm 1 mps 764 mmHg 71%
    23:00 +14°C° 0 mm 1 mps 764 mmHg 73%

    22 June, Saturday

    Time Temperature Precipitation Wind Pressure Humidity
    00:00 +13°C° 0 mm 1 mps 764 mmHg 76%
    01:00 +13°C° 0 mm 1 mps 764 mmHg 77%
    02:00 +13°C° 0 mm 1 mps 764 mmHg 78%
    03:00 +11°C° 0 mm 0 mps 764 mmHg 79%
    04:00 +12°C° 0 mm 0 mps 764 mmHg 78%
    05:00 +13°C° 0 mm 0 mps 764 mmHg 76%
    06:00 +13°C° 0 mm 0 mps 764 mmHg 74%
    07:00 +15°C° 0 mm 0 mps 764 mmHg 67%
    08:00 +18°C° 0 mm 1 mps 764 mmHg 61%
    09:00 +20°C° 0 mm 1 mps 764 mmHg 54%
    10:00 +20°C° 0 mm 1 mps 765 mmHg 53%
    11:00 +21°C° 0 mm 1 mps 765 mmHg 53%
    12:00 +20°C° 0 mm 2 mps 765 mmHg 52%
    13:00 +20°C° 0 mm 2 mps 764 mmHg 52%
    14:00 +20°C° 0 mm 2 mps 764 mmHg 53%
    15:00 +21°C° 0 mm 2 mps 764 mmHg 54%
    16:00 +20°C° 0.1 mm 2 mps 764 mmHg 57%
    17:00 +20°C° 0.1 mm 2 mps 764 mmHg 61%
    18:00 +19°C° 0.1 mm 2 mps 764 mmHg 65%
    19:00 +18°C° 0 mm 2 mps 764 mmHg 68%
    20:00 +17°C° 0 mm 2 mps 764 mmHg 72%
    21:00 +16°C° 0 mm 2 mps 764 mmHg 76%
    22:00 +15°C° 0 mm 2 mps 764 mmHg 76%
    23:00 +15°C° 0 mm 2 mps 764 mmHg 77%

    23 June, Sunday

    Time Temperature Precipitation Wind Pressure Humidity
    00:00 +14°C° 0 mm 2 mps 764 mmHg 78%
    01:00 +14°C° 0 mm 2 mps 764 mmHg 79%
    02:00 +14°C° 0 mm 2 mps 764 mmHg 80%
    03:00 +13°C° 0 mm 2 mps 764 mmHg 81%
    04:00 +14°C° 0 mm 2 mps 764 mmHg 79%
    05:00 +14°C° 0 mm 2 mps 764 mmHg 78%
    06:00 +14°C° 0 mm 3 mps 764 mmHg 77%
    07:00 +16°C° 0 mm 3 mps 764 mmHg 73%
    08:00 +17°C° 0 mm 4 mps 764 mmHg 69%
    09:00 +19°C° 0 mm 4 mps 764 mmHg 64%
    10:00 +19°C° 0 mm 5 mps 764 mmHg 62%
    11:00 +20°C° 0 mm 5 mps 764 mmHg 60%
    12:00 +21°C° 0 mm 5 mps 764 mmHg 58%
    13:00 +21°C° 0 mm 5 mps 763 mmHg 60%
    14:00 +21°C° 0 mm 5 mps 763 mmHg 62%
    15:00 +21°C° 0 mm 5 mps 763 mmHg 64%
    16:00 +20°C° 0 mm 5 mps 763 mmHg 66%
    17:00 +19°C° 0 mm 6 mps 762 mmHg 67%
    18:00 +17°C° 0 mm 6 mps 762 mmHg 69%
    19:00 +17°C° 0 mm 5 mps 762 mmHg 70%
    20:00 +17°C° 0 mm 5 mps 762 mmHg 72%
    21:00 +16°C° 0 mm 5 mps 762 mmHg 73%
    22:00 +16°C° 0 mm 5 mps 762 mmHg 73%
    23:00 +17°C° 0 mm 5 mps 762 mmHg 74%
    Show more